Lid_Strength_Index
7 7 8 8 7 7 7 8 9 10 12 13 14 14 13 13 12 11 12 13 12 13 14 15 16 16 17 17 18 18 18 18 19 20 19 17 18 18 17 17 16 16 16
8 7 8 8 8 8 8 9 10 12 14 14 15 16 15 14 13 13 13 13 13 14 15 16 16 16 18 18 18 19 18 17 17 20 19 19 18 17 17 17 17 16 16
8 8 8 9 9 9 10 10 12 14 15 16 16 16 15 15 15 14 14 15 14 15 15 16 17 17 18 18 18 18 18 18 18 18 19 18 18 17 17 17 17 16 15
8 9 9 10 10 10 11 13 14 15 16 17 16 16 16 16 16 15 15 15 16 16 16 16 17 17 18 18 18 18 18 18 18 19 18 19 18 17 17 18 18 16 16
9 9 10 10 10 11 13 14 16 16 17 17 17 17 17 17 17 17 16 16 16 16 16 17 17 17 16 16 17 18 18 18 18 18 18 18 18 18 18 17 17 16 16
9 10 10 11 12 13 14 15 16 17 17 18 17 17 18 17 15 15 16 16 16 16 17 17 17 16 15 14 14 15 16 17 18 18 18 18 18 17 17 17 16 17 18
12 12 12 13 13 13 14 15 16 17 17 18 17 17 17 17 14 13 14 16 16 16 16 17 17 17 16 16 14 14 14 14 15 16 16 16 16 15 15 16 15 15 16
13 14 14 15 15 14 15 15 16 16 16 16 17 16 17 16 13 13 14 16 16 16 16 16 16 17 16 16 16 16 16 15 14 14 15 15 15 14 14 14 14 15 15
14 14 15 15 15 15 16 17 17 17 16 16 16 16 16 16 13 13 14 16 16 16 16 16 16 17 15 14 16 16 16 15 13 13 12 13 12 11 11 13 16 16 17
14 14 14 15 16 16 16 16 17 15 15 15 15 16 16 16 13 12 14 15 16 16 16 16 15 16 14 13 16 16 17 16 15 16 14 12 10 11 10 11 13 15 14
16 16 16 15 16 16 17 17 17 17 16 16 16 16 16 16 15 12 12 15 15 16 16 16 15 13 12 11 13 15 15 14 14 15 15 14 13 13 13 12 11 11 12
16 16 18 18 16 17 18 19 18 18 19 18 17 17 17 16 14 13 12 13 13 15 15 15 14 12 11 10 11 12 11 11 14 14 14 14 14 13 12 11 11 10 10
18 20 20 18 18 17 18 18 18 19 19 20 19 18 18 17 16 13 11 11 12 14 13 13 12 11 10 9 9 9 11 11 12 14 14 13 12 12 11 12 12 12 12
19 20 19 19 18 18 16 17 18 19 19 18 17 17 17 17 17 16 13 11 12 12 12 12 11 11 10 10 10 9 10 10 11 12 12 12 13 13 13 13 14 14 15
18 18 18 18 18 17 17 17 16 16 16 17 18 16 16 17 16 14 13 13 11 11 12 14 14 12 12 11 11 10 11 10 10 10 11 14 14 13 14 13 14 15 17
15 16 16 16 18 17 17 16 12 12 12 11 11 14 16 13 12 11 11 10 10 9 11 11 12 11 12 11 10 10 10 10 11 11 11 12 13 14 14 14 14 16 17
14 15 15 15 15 15 15 15 16 14 11 11 11 11 11 11 10 10 10 10 9 9 12 11 11 10 10 10 10 12 14 14 14 13 13 14 14 14 15 15 15 17 19
13 13 13 13 13 13 14 14 14 13 14 14 11 12 11 11 10 9 9 9 11 9 10 11 11 10 11 12 13 14 16 16 16 15 15 16 15 15 16 17 17 20 22
15 15 14 15 14 13 13 13 14 13 13 14 14 13 14 11 11 11 10 13 12 12 13 13 13 13 13 13 16 17 17 18 18 18 17 17 17 17 19 19 20 20 21
19 16 16 16 17 16 15 15 15 15 14 14 16 17 15 16 17 22 18 17 15 15 15 16 17 17 19 19 20 19 19 19 19 18 18 18 18 18 20 21 21 23 23
18 18 19 19 21 21 20 19 19 17 16 18 22 21 14 20 19 24 22 22 23 24 23 22 23 22 22 22 21 20 20 19 19 19 19 20 20 21 20 20 23 23 26
19 20 20 21 23 21 21 21 21 21 21 22 24 21 15 22 21 22 23 26 27 27 27 26 25 25 24 22 21 22 22 20 20 20 20 20 21 22 22 22 24 25 26
19 20 21 21 21 21 22 23 23 23 23 23 25 26 27 28 28 28 28 29 29 29 30 29 28 28 27 26 24 23 22 21 21 21 21 22 23 23 24 24 25 25 25
21 21 22 22 22 23 22 23 23 23 23 26 26 29 29 30 30 30 30 31 31 31 32 31 31 30 30 29 26 25 24 25 25 23 22 22 22 22 22 23 22 22 24
22 23 23 23 24 23 23 23 23 25 27 27 29 29 31 30 30 31 31 32 32 32 32 32 32 30 27 26 26 25 23 20 23 22 22 22 21 21 21 22 22 26 26
23 23 23 23 23 23 23 24 25 27 28 28 29 30 30 30 30 31 31 31 31 31 31 32 31 29 28 26 25 24 22 19 21 21 23 23 23 22 22 22 23 23 27